DECAYED
Showing default

FLOCK 1C 9, 40035 (Decayed)

Orbit data source: Space-Track

FLOCK 1C 9, 40035 was a payload satellite owned by Planet Labs (US) in LEO that was launched on Thu, 19 Jun 2014 UTC via a DNEPR launch vehicle from the Orenburg, Russia (OREN). Payload-class satellites include a variety of spacecraft equipped with specific instruments for various scientific and technological missions. These include communications satellites like Starlink; space stations such as the ISS; scientific satellites like the Hubble; Earth observation satellites from companies like Planet Labs, Umbra, and HawkEye 360; GPS; miniature CubeSats for education and research; and military/defense satellites.

Not visible in the next 10 days
Identifier
40035, 2014-033AB
Orbit
Decayed
Country
Flag of USUS
Related business
Manufacturer
Planet Labs
Mission
Decayed Commercial Imaging
Bus & Motor
CUBESAT 3U, Unknown motor
Mass
4.25 kg wet, 4.25 kg dry
Launch date (UTC)
2014-06-19 (11 years ago)
Launch vehicle
DNEPR
Launch site
Orenburg, Russia (OREN)
Object type
Payload
Rocket body
Debris
Shape & HBR
Box + 2 Pan, 0.1 m
Radar Cross Section
0.108 m², Small (<0.1 m²)

Expand to show TLE details & history
Last TLE update: 7 months ago

TLE from 7 months ago
0 FLOCK 1C 9
1 40035U 14033AB  25032.01215735  .07681039  28913-5  21113-2 0  9991
2 40035  98.0325  47.5067 0008434 131.3281 228.8737 16.27950472578895
Epoch: 2025-02-01T00:17Z
TLE epoch observation values (Epoch: 2025-02-01T00:17:30.395Z)
Latitude
-0.00001°
Longitude
-88.33656°
Altitude
204.921 km
Speed
7.781 km/s
True Right ascension
03h 10m 01s
True Declination
0° 00' 00"
Sunlit
Object was in daylight at epoch
Visualization orbit readout
Latitude
Unknown
Longitude
Unknown
Altitude
Unknown
Speed
Unknown
Apparent Right ascension
Unknown
Apparent Declination
Unknown
Sunlit
N/A
Visualization observer readout
Local Sidereal Time
16:02:26
Azimuth
Unknown
Elevation
Unknown
Doppler factor
Unknown
Orbital elements
Apogee altitude
200.45 km
Perigee altitude
189.363 km
Semi-major axis
6,573.043 km
Eccentricity
0.00084
Inclination
98.0325°
RAAN
47.5067°
Arg. of periapsis
131.3281°
True anomaly
228.80095°
Mean anomaly
228.8737°
Eccentric anomaly
228.83732°
Mean motion
4.0728 °/min
Orbital period
88.39 mins
BSTAR
0.0021113
Loading maneuver chart data...
Computing Atmospheric mass density...
Loading historical data...
Loading historical data...
Loading historical data...
Loading historical data...
Loading historical data...
Loading historical data...
Loading historical data...

Documentation

Showing up to 5 results
|